Tracking 19563 objects as of 20-Mar-2019
HD Live streaming from Space Station
objects crossing your sky now

HELLAS-SAT 2

Track HELLAS-SAT 2 now!
HELLAS-SAT 2 is classified as:


NORAD ID: 27811
Int'l Code: 2003-020A
Perigee: 35,778.5 km
Apogee: 35,835.5 km
Inclination: 0.9 °
Period: 1,436.8 minutes
Semi major axis: 42177 km
RCS: 15.8489 m2 (large)
Launch date: May 13, 2003
Source: Greece (GREC)
Launch site: AIR FORCE EASTERN TEST RANGE (AFETR)

30 Ku-band; television broadcasting services for the 2004 Summer Olympic Games in Athens.
aabbcc
Your satellite tracking list
Your tracking list is empty




NASA's NSSDC Master Catalog

Two Line Element Set (TLE):
1 27811U 03020A   19078.46649678 -.00000167 +00000-0 +00000-0 0  9994
2 27811 000.8579 097.8160 0006755 235.2283 276.4444 01.00224580057790
Source of the keplerian elements: AFSPC